Regional Weather Roundup
Issued by NWS San Diego, CA

Home | Current Version | Previous Version | Text Only | Print | Product List | Glossary On
Versions: 1 2 3 4 5 6 7 8 9 10 11 12 13 14 15 16 17 18 19 20 21 22 23 24 25 26 27
000
ASUS46 KSGX 252211
RWRSGX

SAN DIEGO HOURLY WEATHER ROUNDUP
NATIONAL WEATHER SERVICE SAN DIEGO CA
300 PM PDT WED APR 25 2018

NOTE: "FAIR" INDICATES FEW OR NO CLOUDS BELOW 12,000 FEET WITH NO
SIGNIFICANT WEATHER AND/OR OBSTRUCTIONS TO VISIBILITY.

CAZ042-043-060-061-PZZ750-775-252300-

GREATER SAN DIEGO AREA

CITY           SKY/WX    TMP DP  RH WIND       PRES   REMARKS
SAN DIEGO AP   PTSUNNY   67  52  58 NW12      30.06F
NATIONAL CITY    N/A     67  57  71 S5        30.05F
CHULA VISTA      N/A     67  57  68 W3        29.97F
IMPERIAL BEACH PTSUNNY   64  52  64 W13       30.06F
BROWN FIELD    SUNNY     68  53  58 VRB7      30.04F
MIRAMAR MCAS   MOSUNNY   72  50  45 NW8       30.04F
MONTGOMERY FLD SUNNY     70  50  49 NW9       30.04F
GILLESPIE FLD  SUNNY     77  48  36 W7        30.01F

$$

NORTH SAN DIEGO COUNTY

CITY           SKY/WX    TMP DP  RH WIND       PRES   REMARKS
CAMP PENDLETON MOSUNNY   69  51  52 SW10      30.03F
OCEANSIDE AP   SUNNY     66  52  60 W7        30.04F
OCEANSIDE HBR    N/A     61  55  81 NE6       30.07F
VISTA            N/A     69  52  55 CALM      30.02F
CARLSBAD       SUNNY     63  52  67 SW8       30.04F
DEL MAR          N/A     66  56  69 CALM      30.07F
LA JOLLA SCRIP   N/A     60  55  83 W8        30.06F
FALLBROOK        N/A     73  53  48 SW2       30.04S
ESCONDIDO        N/A     77  53  43 W10       30.03F
SAN MARCOS       N/A     72  52  49 W9        30.07F
POWAY            N/A     78  52  40 W5        30.02F

$$

EAST SAN DIEGO COUNTY

CITY           SKY/WX    TMP DP  RH WIND       PRES   REMARKS
RAMONA         SUNNY     79  44  28 NW9       30.04F
SANTEE LAKES     N/A     78  53  41 SW5       30.01F
LA MESA          N/A     74  53  48 W3        29.98F
JAMUL            N/A     76  55  48 CALM      30.03F
DESCANSO N       N/A     73  41  32 W7        29.96F
CAMPO            N/A     79  32  18 SW15G21   30.02F

$$

ORANGE COUNTY AND THE LOS ANGELES BASIN

CITY           SKY/WX    TMP DP  RH WIND       PRES   REMARKS
JOHN WAYNE AP  MOSUNNY   68  51  54 SW8       30.04F
LAGUNA BEACH     N/A     66  56  69 CALM      30.00F
LAKE FOREST FR   N/A     75  49  38 W1        29.92F
HUNTINGTON BCH   N/A     66  56  70 SW2       30.05F
LOS ALAMITOS   MOSUNNY   71  52  51 S8        30.03F
FULLERTON      SUNNY     75  50  41 CALM      30.02F
LONG BEACH     SUNNY     74  49  41 VRB5      30.03F
L.A. AP        MOSUNNY   63  50  62 W12       30.05F
L.A. DOWNTOWN  SUNNY     67  50  54 W3        30.04F

$$

THE INLAND EMPIRE

CITY           SKY/WX    TMP DP  RH WIND       PRES   REMARKS
CORONA         SUNNY     78  47  33 W15G21    30.01F
CHINO          MOSUNNY   82  42  24 W14       30.02F
ONTARIO        MOSUNNY   81  46  29 SW13      30.01F
SAN BERNARDINO MOSUNNY   84  32  15 W10       30.01F HAZE
RIVERSIDE AP   SUNNY     80  41  24 W8G18     30.01F
MORENO VALLEY    N/A     83  47  27 S5        28.13F
MARCH ARB      SUNNY     81  41  24 W15       30.02F
PERRIS           N/A     81  46  29 NW6       29.95F
HEMET EAST       N/A     82  31  16 W7        29.94F
FRENCH VALLEY  FAIR      77  41  27 SW12      30.02F
TEMECULA         N/A     79  46  30 SW6       30.04F

$$

SAN BERNARDINO AND RIVERSIDE COUNTY MOUNTAINS

CITY           SKY/WX    TMP DP  RH WIND       PRES   REMARKS
BIG BEAR AP    SUNNY     68  14  12 NW13G21   30.21F
ANGELUS OAKS     N/A     67  37  32 CALM      29.90F

$$

SOUTHERN DESERT INCLUDING THE COACHELLA VALLEY

CITY           SKY/WX    TMP DP  RH WIND       PRES   REMARKS
PALM SPRINGS   SUNNY     99  21   6 N8G22     29.88F
THOUSAND PALMS   N/A     99  28   8 NW6       29.83F
PALM DESERT      N/A    101  35  10 CALM        N/A  HX  95
THERMAL        SUNNY    103  22   5 SE10      29.81F HX  95
BLYTHE         SUNNY     98  23   7 S8        29.85F
IMPERIAL AP    SUNNY     98  15   5 W6        29.84F
EL CENTRO NAS  MOSUNNY   97  21   6 SE8       29.85F
YUMA AZ        MOSUNNY   96  38  13 VRB5      29.86F
MEXICALI       SUNNY     95  28   9 S6        29.86F

$$

UPPER DESERT

CITY           SKY/WX    TMP DP  RH WIND       PRES   REMARKS
VICTORVILLE AP SUNNY     88  19   8 S3        30.01F
HESPERIA         N/A     83  37  19 W14       29.93F
APPLE VALLEY     N/A     89  30  12 N8        29.94F
PALMDALE       SUNNY     84  32  15 SW13G20   30.01F
LANCASTER      SUNNY     84  30  14 SW14G24   30.01F
EDWARDS AFB    MOSUNNY   89  14   6 CALM      29.97F
DAGGETT        SUNNY     94  25   8 NE8       29.94F
29 PALMS N     MOSUNNY   94   4   3 E9G20     30.00F
NEEDLES        SUNNY    101  14   4 VRB5      29.87F

$$

REGIONAL REPORTS

CITY           SKY/WX    TMP DP  RH WIND       PRES   REMARKS
SANTA BARBARA  SUNNY     61  50  67 SW8       30.06F
SANDBERG       SUNNY     71  29  21 S16       30.14F
LAS VEGAS NV   MOSUNNY   90  23   9 E6        29.96F
PHOENIX AZ     MOSUNNY   98  24   7 SW9       29.87F
TIJUANA        MOSUNNY   68  50  52 W9        30.06F
ENSENADA NW      N/A     63  32  31 CALM      29.99F

$$

OFFSHORE ISLANDS

CITY           SKY/WX    TMP DP  RH WIND       PRES   REMARKS
CATALINA ARPT  SUNNY     63  30  28 W7        30.07F
SAN CLEMENTE I MOSUNNY   64  50  60 W12       30.09S
SAN NICOLAS IS MOSUNNY   62  48  60 SW13      30.07F

$$

MARINE AND OFFSHORE BUOY REPORTS

STATION/POSITION SKY/WX   TEMP    WIND        PRES    VSBY  SWELL
                          AIR SEA DIR/SP/G                  HT/PER/DIR
                          (F)     (DEG/KT/KT) (MB)    (MI)  (FT/S/D)
TANNER BANKS               58 59              1018.6F
S CLEMENTE BASIN           58 63  290/  8/ 10 1018.6F         5/270/16
SAN NICOLAS IS.               58                N/A           5/300/15
SO. S. ROSA ISLA           54 56  290/ 10/ 12 1018.5F         7/300/15
W. S. BARBARA CH              55  300/  8/ 12 1018.4F         7/290/15
M. S. BARBARA CH           54 55  250/  6/  8   N/A           3/260/15
S. MONICA BASIN                   250/  8/ 10 1018.0F         3/270/16
S PEDRO CHANNEL               60                N/A           2/240/17
CMP PENDLETON NS              62                N/A           2/210/17
OCEANSIDE OFFSHR              63                N/A           2/180/17
TORREY PINES OTR              63                N/A           2/220/17
SAN DIEGO BAY                 63              1017.3F
POINT LOMA SOUTH              63                N/A           5/280/15

$$





USA.gov is the U.S. government's official web portal to all federal, state and local government web resources and services.